OEBA

Al-Baha Domestic Airport

Airport
ICAO code
OEBA
IATA Code
ABT
Summary
ICAO Region
MID
ICAO Territory
Location

Al-Baha,

Serving
Al-Baha
Elevation
5486 ft
Coordinates
20° 17' 38" N , 41° 38' 24" E
KCC
Metar
OEBA 221600Z 23006KT CAVOK 23/09 Q1021 NOSIG

Description

Al-Baha Domestic Airport is located 20 km northeast of Al-Baha, Saudi Arabia.

Climatology

Hot Desert Climate (Köppen climate classification BWh) - Hot desert climates are typically found in the subtropics where there is unbroken sunshine for the whole year due to the stable descending air and high pressure, little or no precipitation. Maximum temperatures of 40°C to 45°C are not uncommon, particularly during the warmer months of the year. During colder periods of the year, night-time temperatures can drop to freezing or below due to the exceptional radiation loss under the clear skies. However, very rarely do temperatures drop far below freezing.

Runways

Designator Length Width Surface Rops
7/25 3350 45 ASP Yes/Yes

Airport map

Aerial View

SKYbrary Partners:

Safety knowledge contributed by: